Home > Weather > Chongqing > Past weeks

Flag for China Weather for the Past 2 Weeks in Chongqing, Chongqing Municipality, China

Now
73 °F

Scattered clouds.


Feels Like: 76 °F
Forecast: 67 / 81 °F
Wind: 3 mph from East

Location: Chongqing Airport

Current Time: Apr 29, 2016 at 2:44:12 PM

Latest Report: Apr 29, 2016 at 2:00 PM


Visibility: N/A

Pressure: 30.01 "Hg

Humidity: 61%

Dew Point: 59 °F

Location of ChongqingLocation

Historic Weather in Chongqing — Graph

°F

Chongqing Temperature Yesterday

Maximum temperature yesterday: 79 °F (at 1:00 PM)
Minimum temperature yesterday: 66 °F (at 6:00 AM)
Average temperature yesterday: 72 °F

High & Low Weather Summary for the Past Weeks

 TemperatureHumidityPressure
High82 °F (Apr 27, 3:00 PM)94% (Apr 15, 2:00 AM)30.12 "Hg (Apr 15, 2:00 AM)
Low55 °F (Apr 18, 5:00 AM)30% (Apr 16, 5:00 PM)29.65 "Hg (Apr 15, 2:00 PM)
Average65 °F77%29.89 "Hg
* Reported Apr 14 1:00 PM — Apr 29 1:00 PM, Chongqing, Weather by CustomWeather, © 2016

Note: Actual official high and low records may vary slightly from our data, if they occured in-between our weather recording intervals... More about our weather records

Advertising

Chongqing Weather History for the Previous 24 Hours

Scroll right to see more
 ConditionsComfort  
Time TempWeatherWind HumidityBarometerVisibility
1:00 PM
Fri, Apr 29
72 °FScattered clouds.3 mph65%30.04 "HgN/A
12:00 PM72 °FPassing clouds.3 mph69%30.04 "HgN/A
11:00 AM70 °FScattered clouds.3 mph78%30.07 "HgN/A
10:00 AM68 °FFog.3 mph78%30.07 "Hg1 mi
9:00 AM66 °FFog.6 mph88%30.07 "Hg1 mi
8:00 AM64 °FFog.8 mph94%30.04 "Hg1 mi
7:00 AM64 °FLight rain. Fog.6 mph94%30.04 "Hg1 mi
6:00 AM64 °FLight rain. Fog.3 mph88%30.01 "Hg1 mi
5:00 AM64 °FLight rain. Fog.3 mph94%30.01 "Hg1 mi
4:00 AM66 °FLight rain. Fog.1 mph88%29.98 "Hg1 mi
3:00 AM66 °FLight rain. Fog.6 mph88%30.01 "Hg1 mi
2:00 AM66 °FLight rain. Fog.3 mph94%30.04 "Hg1 mi
1:00 AM66 °FRain. Fog.1 mph88%30.07 "Hg1 mi
12:00 AM68 °FLight rain. Passing clouds.1 mph83%30.04 "Hg5 mi
11:00 PM
Thu, Apr 28
68 °FLight rain. Passing clouds.1 mph83%30.04 "HgN/A
10:00 PM70 °FLight rain. Passing clouds.3 mph73%30.04 "HgN/A
9:00 PM72 °FLight rain. Passing clouds.3 mph65%30.01 "HgN/A
8:00 PM72 °FClear.3 mph57%29.95 "Hg10 mi
7:00 PM72 °FSunny.6 mph61%29.95 "Hg10 mi
6:00 PM73 °FSunny.3 mph57%29.92 "Hg10 mi
5:00 PM75 °FHaze.6 mph65%29.92 "Hg2 mi
4:00 PM77 °FHaze.6 mph65%29.95 "Hg2 mi
3:00 PM77 °FHaze.8 mph65%29.95 "Hg2 mi
Weather by CustomWeather, © 2016

See weather overviewHow to use our weather pages